PDT,Max TemperatureF,Mean TemperatureF,Min TemperatureF,Max Dew PointF,MeanDew PointF,Min DewpointF,Max Humidity, Mean Humidity, Min Humidity, Max Sea Level PressureIn, Mean Sea Level PressureIn, Min Sea Level PressureIn, Max VisibilityMiles, Mean VisibilityMiles, Min VisibilityMiles, Max Wind SpeedMPH, Mean Wind SpeedMPH, Max Gust SpeedMPH,PrecipitationIn, CloudCover, Events, WindDirDegrees
2013-9-1,88,75,62,60,56,52,84,58,31,29.93,29.90,29.85,10,10,10,22,10,25,0.00,2,,280
2013-9-2,87,76,65,62,60,56,81,58,35,29.96,29.92,29.88,10,10,10,20,9,23,0.01,3,,246
2013-9-3,82,72,61,58,54,46,84,56,28,29.99,29.96,29.93,10,10,10,20,9,23,0.00,1,,259
2013-9-4,83,72,61,58,55,51,84,59,34,30.02,29.98,29.94,10,10,10,18,10,24,0.00,1,,234
2013-9-5,83,72,61,57,55,49,78,56,33,30.01,29.98,29.94,10,10,10,17,9,22,0.00,2,,231
2013-9-6,93,74,54,56,48,42,86,52,18,29.99,29.91,29.81,10,10,10,16,4,22,0.00,0,,35
2013-9-7,100,79,58,47,44,40,57,36,14,29.87,29.83,29.77,10,10,10,18,4,22,0.00,0,,292
2013-9-8,100,81,61,53,49,45,57,38,18,29.86,29.80,29.73,10,10,10,15,4,20,0.00,0,,278
2013-9-9,102,83,63,52,48,41,60,39,17,29.80,29.74,29.68,10,10,10,21,5,24,0.00,0,,285
2013-9-10,85,74,62,58,56,52,84,61,37,29.88,29.78,29.72,10,10,10,21,10,26,0.00,0,,295
2013-9-11,80,70,59,58,56,54,78,62,45,29.98,29.94,29.88,10,10,10,20,10,25,0.00,2,,269
2013-9-12,85,74,62,59,58,57,84,62,40,29.98,29.93,29.86,10,10,10,20,7,23,0.00,4,,271
2013-9-13,86,73,59,57,56,54,84,61,37,29.91,29.85,29.75,10,10,6,17,7,20,0.00,4,,285
2013-9-14,75,66,57,56,55,54,87,70,53,29.83,29.79,29.74,10,10,10,16,8,20,0.00,4,,271
2013-9-15,83,71,58,58,55,53,86,62,37,29.87,29.83,29.79,10,10,10,20,8,23,0.00,3,,250
2013-9-16,86,74,61,59,56,51,90,61,32,29.90,29.85,29.78,10,10,10,18,7,22,0.00,3,,245
2013-9-17,78,69,59,55,53,48,84,60,36,29.88,29.85,29.83,10,10,10,20,10,24,0.00,2,,226
2013-9-18,87,71,54,52,47,40,83,52,20,29.91,29.86,29.80,10,10,10,17,4,21,0.00,0,,249
2013-9-19,94,73,52,47,41,35,66,40,14,29.86,29.80,29.73,10,10,10,16,3,18,0.00,0,,277
2013-9-20,78,67,56,58,54,46,83,67,50,29.87,29.82,29.76,10,10,10,23,10,28,0.00,3,,268
2013-9-21,72,65,58,59,56,52,90,70,49,29.89,29.84,29.81,10,9,1,18,8,22,0.46,5,Rain,235
2013-9-22,76,65,54,56,53,49,93,67,41,30.00,29.96,29.90,10,10,10,15,3,21,0.00,2,,272
2013-9-23,85,70,54,59,54,51,86,59,32,30.02,29.97,29.91,10,10,10,16,3,20,0.00,0,,258
2013-9-24,77,68,59,56,53,47,84,61,38,29.98,29.94,29.91,10,10,2,21,10,25,0.00,0,,237
2013-9-25,72,63,53,49,46,41,72,54,35,29.93,29.88,29.82,10,10,10,18,9,23,0.00,1,,250
2013-9-26,78,63,47,47,41,33,86,53,20,29.99,29.89,29.83,10,10,10,18,5,24,0.00,0,,292
2013-9-27,80,65,49,44,37,29,74,45,16,30.09,30.04,29.99,10,10,10,16,3,21,0.00,0,,345
2013-9-28,87,69,50,55,38,23,84,47,10,30.08,30.04,29.97,10,10,10,18,3,22,0.00,0,,266
2013-9-29,80,68,56,59,55,53,93,68,42,30.10,30.07,30.03,10,10,10,17,6,21,0.00,0,,270
2013-9-30,78,69,60,59,57,55,84,67,50,30.08,30.04,29.96,10,10,10,15,5,18,0.00,4,,260